"Pseudo-MPEC" for P1186yl

Created 2020 Oct 18 23:07:41 UT using Find_Orb

Click here for an explanation of pseudo-MPECs

 
 Astrometry: 
     P1186yl  C2020 10 16-6jxE0c+WTOT@wt34aF^/4ljT1d4ffuVs!A7-Rk6,14xADa*3-t)F51
     P1186yl  C2020 10 16a_nPL4KNEyP@67r'M$m;^krYjYd#@8`\xT2$i7Rhj(.Z?bG*/B4!F51
     P1186yl  C2020 10 16DG?!h2b$djh_'@ML#[,BaHCEW`g2NCVPbXNtB8j2Pm!Ws$9TNDT,F51
     P1186yl  C2020 10 18.27135201 18 16.12 -06 24 20.2    ~AI7M 19.36GVNEOCPG96
     P1186yl  C2020 10 18.27650001 18 10.02 -06 21 57.1    ~AI7M 20.45GVNEOCPG96
     P1186yl  C2020 10 18.28164601 18 03.86 -06 19 34.1    ~AI7M 19.25GVNEOCPG96
     P1186yl  C2020 10 18.28679201 17 57.81 -06 17 10.4    ~AI7M 19.41GVNEOCPG96
     P1186yl KC2020 10 18^urf([:Z/4V%B(/j]fcaYibhr`BXx=Pd6X'qs;ZaL\fHeulbVdAy595
     P1186yl KC2020 10 18cKf+)#Y(9l/d?%DQ'myFBlH*fUli'2O0PRD3E6B/U!S[RZ(,KR)/L01
     P1186yl KC2020 10 18.oic3DNbUYnSl9ChHxj!3v6p\puhy*vIt:ea^mIm=Fr0i;XA_3/5L01
     P1186yl KC2020 10 18IYr@T`s^]v2Qas5/v)5m)b#s#[nAstrometrybo#wr\Iljdf)!b;L01
     P1186yl pC2020 10 18R$ig3?JH3T06MgLu)AS[m5*`ZnLcIh$!lGiYg9(GljN4J=7#x+l]L01
     P1186yl KC2020 10 18kL+=5U+n0R;y1\mm6::'iNredacted;Cmk[pD@b[1i@N$O3r`?h9595
     P1186yl KC2020 10 18Q$,D;!^vDf?72TaVt#k_l13Ka!w!t?:KD!J_Vb[OTclickk;c,q7L01
     P1186yl KC2020 10 18.88246701 06 56.88 -01 42 54.4    ~AILb 19.8 GVNEOCPI93
     P1186yl KC2020 10 18/wVMd'h?Xi:xhere^eB_i[;,po5$:PgF!Y/=VeDtF3:for%VT#:s595
     P1186yl KC2020 10 18.88943501 06 49.00 -01 39 42.2    ~AILb 19.4 GVNEOCPI93
     P1186yl KC2020 10 18yS=4nI*c8.#hP#i/3,?x*9y=-XNa5B54vRHDU,.mne[Di$-Vd.nt104
     P1186yl KC2020 10 18-f'e:C6Xh2djW?v?fE^!C'%Q]i1l7+S#g?=0s.B@`,QY]JE(/FK6104
     P1186yl KC2020 10 18%VNHht_MMexplanationc:FZ$@h\c`B:s%?aN3wiFE1@_9nH-:\f104

Station data:
(104) San Marcello Pistoiese  (N44.063037 E10.804200)  Italy. 0.40-m f/5
   reflector.
(595) Farra d'Isonzo  (N45.915734 E13.525780)  Italy.  Observers L.
   Bittesini, F. Fabris, E. Pettarin, F. Piani. Measurer E. Pettarin. 0.30-m
   f/4.5 reflector + CCD.
(F51) Pan-STARRS 1, Haleakala  (N20.707235 W156.255910)  US/Hawaii.
   Observers N. Primak, A. Schultz, S. Watters, J. Thiel, T. Goggia. Measurer
   PS1 Science Consortium. 1.8-m Ritchey-Chrétien + CCD.
(G96) Mt. Lemmon Survey  (N32.442754 W110.788720)  US/Arizona.  Observers T.
   A. Pruyne, B. M. Africano, E. J. Christensen, G. A. Farneth, D. C. Fuls,
   A. R. Gibbs, A. D. Grauer, H. Gröller, J. A. Johnson, R. A. Kowalski, S.
   M. Larson, G. J. Leonard, D. Rankin, R. L. Seaman, F. C. Shelly. 1.5-m
   reflector + 10K CCD.
(I93) St Pardon de Conques  (N44.558710 W0.203000)  France.  Observer F.
   Losse. 0.40-m f/3.7 reflector + CCD.
(L01) Višnjan Observatory, Tičan  (N45.290900 E13.749300)  Croatia.
   Observers K. Korlević, E. Pettarin. Measurer E. Pettarin. 1.0-m f/2.9
   reflector + CCD.

Orbital elements:  P1186yl
   Perihelion 2020 Sep 7.312595 +/- 0.418 TT =  7:30:08 (JD 2459099.812595)
Epoch 2020 Oct 18.0 TT = JDT 2459140.5   Earth MOID: 0.0558   AutoNEOCP
M  30.33241440 +/- 0.48             (J2000 ecliptic)
n   0.74549886 +/- 0.00433          Peri.  316.99062 +/- 0.39
a   1.20458668 +/- 0.00466          Node    25.89057 +/- 0.0050
e   0.1576143 +/- 0.00284           Incl.   28.65690 +/- 0.19
P   1.32/482.89d           H 25.1   G  0.15   U  9.1  
q 1.01472652 +/- 0.000503    Q 1.39444683 +/- 0.00886
From 20 observations 2020 Oct. 16-18; mean residual 0".33
Residuals in arcseconds: 
201016 F51  .30+  .28-    201018 595  .48+  .36-    201018 I93  .74-  .69-    
201016 F51  .14-  .34+    201018 L01  .08-  .05-    201018 595  .21+  .46+    
201016 F51  .07-  .00     201018 L01  .01+  .03-    201018 I93  .17+  .55+    
201018 G96  .22-  .07-    201018 L01  .07-  .13+    201018 104  .17+  .73-    
201018 G96  .05+  .16-    201018 L01  .15-  .29+    201018 104  .31-  .39+    
201018 G96  .62-  .30-    201018 595  .12+  .34+    201018 104  .33+  .24-    
201018 G96  .34+  .25+    201018 L01  .25+  .29+    

Ephemerides (geocentric):
Date (UTC) HH   RA              Dec         delta   r     elong  mag " sig PA
---- -- -- --  -------------   -----------  ------ ------ -----  --- ---- ---
2020 10 18 23  01 05 29.838   -01 06 27.87  .05716 1.0518 166.7 19.7 .916 163
2020 10 19 00  01 04 44.272   -00 47 30.83  .05722 1.0519 166.8 19.7 .935 163
2020 10 19 01  01 03 58.809   -00 28 36.05  .05728 1.0519 166.9 19.7 .955 163
2020 10 19 02  01 03 13.450   -00 09 43.61  .05734 1.0520 167.0 19.7 .975 163
2020 10 19 03  01 02 28.196   +00 09 06.37  .05741 1.0521 167.1 19.7 1.00 163
2020 10 19 04  01 01 43.049   +00 27 53.80  .05747 1.0521 167.2 19.7 1.02 163
2020 10 19 05  01 00 58.007   +00 46 38.57  .05754 1.0522 167.2 19.7 1.04 163
2020 10 19 06  01 00 13.074   +01 05 20.61  .05762 1.0523 167.3 19.7 1.06 163
2020 10 19 07  00 59 28.248   +01 23 59.79  .05769 1.0523 167.3 19.7 1.08 163
2020 10 19 08  00 58 43.531   +01 42 36.05  .05777 1.0524 167.4 19.7 1.10 163
2020 10 19 09  00 57 58.924   +02 01 09.27  .05785 1.0525 167.4 19.7 1.13 163
2020 10 19 10  00 57 14.428   +02 19 39.38  .05793 1.0526 167.4 19.7 1.15 163
2020 10 19 11  00 56 30.042   +02 38 06.28  .05801 1.0526 167.4 19.7 1.17 163
2020 10 19 12  00 55 45.768   +02 56 29.88  .05810 1.0527 167.4 19.7 1.20 163
2020 10 19 13  00 55 01.606   +03 14 50.11  .05818 1.0528 167.4 19.8 1.22 163
2020 10 19 14  00 54 17.558   +03 33 06.87  .05828 1.0528 167.3 19.8 1.24 163
2020 10 19 15  00 53 33.623   +03 51 20.08  .05837 1.0529 167.3 19.8 1.27 163
2020 10 19 16  00 52 49.802   +04 09 29.67  .05846 1.0530 167.2 19.8 1.29 163
2020 10 19 17  00 52 06.096   +04 27 35.56  .05856 1.0531 167.2 19.8 1.32 163
2020 10 19 18  00 51 22.506   +04 45 37.66  .05866 1.0531 167.1 19.8 1.34 163
2020 10 19 19  00 50 39.032   +05 03 35.90  .05876 1.0532 167.0 19.8 1.37 163
2020 10 19 20  00 49 55.675   +05 21 30.21  .05887 1.0533 167.0 19.8 1.39 163
2020 10 19 21  00 49 12.435   +05 39 20.53  .05897 1.0533 166.9 19.8 1.42 163
2020 10 19 22  00 48 29.312   +05 57 06.77  .05908 1.0534 166.8 19.8 1.44 163
2020 10 19 23  00 47 46.308   +06 14 48.87  .05919 1.0535 166.6 19.8 1.47 163
2020 10 20 00  00 47 03.423   +06 32 26.77  .05931 1.0535 166.5 19.8 1.50 163
2020 10 20 01  00 46 20.657   +06 50 00.39  .05942 1.0536 166.4 19.8 1.52 163
2020 10 20 02  00 45 38.011   +07 07 29.69  .05954 1.0537 166.3 19.8 1.55 163
2020 10 20 03  00 44 55.486   +07 24 54.59  .05966 1.0538 166.1 19.9 1.58 163
2020 10 20 04  00 44 13.081   +07 42 15.04  .05978 1.0538 166.0 19.9 1.60 163
2020 10 20 05  00 43 30.798   +07 59 30.99  .05990 1.0539 165.8 19.9 1.63 163
2020 10 20 06  00 42 48.636   +08 16 42.37  .06003 1.0540 165.7 19.9 1.66 163
2020 10 20 07  00 42 06.597   +08 33 49.14  .06016 1.0540 165.5 19.9 1.68 163
2020 10 20 08  00 41 24.680   +08 50 51.24  .06029 1.0541 165.3 19.9 1.71 163
2020 10 20 09  00 40 42.886   +09 07 48.63  .06042 1.0542 165.1 19.9 1.74 163
2020 10 20 10  00 40 01.216   +09 24 41.25  .06056 1.0543 165.0 19.9 1.76 163
2020 10 20 11  00 39 19.669   +09 41 29.06  .06069 1.0543 164.8 19.9 1.79 163
2020 10 20 12  00 38 38.247   +09 58 12.02  .06083 1.0544 164.6 19.9 1.82 163
2020 10 20 13  00 37 56.949   +10 14 50.09  .06097 1.0545 164.4 20.0 1.85 163
2020 10 20 14  00 37 15.776   +10 31 23.22  .06111 1.0546 164.2 20.0 1.87 163
2020 10 20 15  00 36 34.728   +10 47 51.38  .06126 1.0546 164.0 20.0 1.90 163
2020 10 20 16  00 35 53.806   +11 04 14.52  .06140 1.0547 163.8 20.0 1.93 163
2020 10 20 17  00 35 13.010   +11 20 32.62  .06155 1.0548 163.6 20.0 1.96 163
2020 10 20 18  00 34 32.340   +11 36 45.64  .06170 1.0548 163.4 20.0 1.98 163
2020 10 20 19  00 33 51.796   +11 52 53.55  .06185 1.0549 163.2 20.0 2.01 163
2020 10 20 20  00 33 11.379   +12 08 56.32  .06201 1.0550 162.9 20.0 2.04 163
2020 10 20 21  00 32 31.089   +12 24 53.92  .06216 1.0551 162.7 20.1 2.07 163
2020 10 20 22  00 31 50.927   +12 40 46.32  .06232 1.0551 162.5 20.1 2.09 163